Flag for Greenland

Past Weather in Daneborg, Greenland — Yesterday and Last 2 Weeks

Now
24 °F

Cold.


Feels Like: 10 °F
Forecast: 25 / 18 °F
Wind: 18 mph from North

Location: Daneborg
Current Time: Sep 21, 2020 at 2:31:59 am
Latest Report: Sep 21, 2020 at 1:00 am
Visibility: N/A
Pressure29.50 "Hg
Humidity: 67%
Dew Point: 15 °F
Location of DaneborgLocation

Past Weather in Daneborg — Graph

°F

Daneborg Temperature Yesterday

Maximum temperature yesterday: 27 °F (at 1:00 am)
Minimum temperature yesterday: 25 °F (at 10:00 am)
Average temperature yesterday: 26 °F

High & Low Weather Summary for the Past Weeks

 TemperatureHumidityPressure
High35 °F (Sep 8, 1:00 pm)97% (Sep 6, 2:00 am)30.01 "Hg (Sep 6, 2:00 am)
Low22 °F (Sep 18, 5:00 am)36% (Sep 15, 3:00 pm)29.35 "Hg (Sep 19, 8:00 pm)
Average29 °F67%29.72 "Hg
* Reported Sep 5 10:00 pm — Sep 20 10:00 pm, Daneborg. Weather by CustomWeather, © 2020

Note: Actual official high and low records may vary slightly from our data, if they occured in-between our weather recording intervals... More about our weather records

Daneborg Weather History for the Previous 24 Hours

Scroll right to see more
 ConditionsComfort  
Time TempWeatherWind HumidityBarometerVisibility
10:00 pm
Sun, Sep 20
25 °FChilly.18 mph65%29.54 "HgN/A
9:00 pm26 °FChilly.21 mph63%29.55 "HgN/A
8:00 pm26 °FChilly.21 mph64%29.55 "HgN/A
7:00 pm25 °FChilly.18 mph72%29.56 "HgN/A
6:00 pm25 °FCold.26 mph76%29.56 "HgN/A
5:00 pm25 °FChilly.24 mph72%29.56 "HgN/A
4:00 pm25 °FChilly.22 mph76%29.55 "HgN/A
3:00 pm26 °FChilly.24 mph84%29.56 "HgN/A
2:00 pm25 °FChilly.23 mph85%29.55 "HgN/A
1:00 pm26 °FChilly.22 mph81%29.55 "HgN/A
11:00 am26 °FChilly.22 mph79%29.50 "HgN/A
10:00 am25 °FCold.20 mph82%29.50 "HgN/A
9:00 am26 °FChilly.20 mph73%29.50 "HgN/A
8:00 am26 °FChilly.21 mph75%29.50 "HgN/A
7:00 am26 °FChilly.21 mph71%29.47 "HgN/A
6:00 am26 °FChilly.20 mph71%29.47 "HgN/A
5:00 am25 °FChilly.20 mph70%29.44 "HgN/A
3:00 am26 °FChilly.18 mph74%29.44 "HgN/A
2:00 am26 °FChilly.20 mph78%29.41 "HgN/A
Weather by CustomWeather, © 2020

See weather overview